Location: Goettingen
(51.5300°N, 9.9433°E)
Time: 19:54:44
(UTC+01:00)

ISS - Pass Details

Date: 10 December 2017
Orbit: 402 x 407 km, 51.6° (Epoch: 11 December)

Event Time Altitude Azimuth Distance (km) Brightness Sun altitude
Rises 17:25:11 0° 276° (W) 2,331 1.2 -10.7°
Reaches altitude 10° 17:27:16 10° 276° (W) 1,470 0.0 -11.0°
Maximum altitude 17:30:34 89° 186° (S) 412 -3.9 -11.5°
Enters shadow 17:33:03 17° 98° (E) 1,137 -2.1 -11.9°
